Simultaneous Nadir Overpasses (SNOs) Predictions

Prediction of SNOs between GOES-16 and TERRA Satellite Orbit:

Table of predicted SNOs for the next 14.0 days since TLE Epoch: 2/6/2021
Index Date Time (GOES-16) GOES-16 Lat,Lon TERRA Lat,Lon Distance(km) Time Diff (sec)
1 02/06/2021 15:25:51 -0.01, -75.20 -0.33, -73.78 162.39 80
2 02/07/2021 03:47:15 0.01, -75.18 -0.77, -78.97 431.20 80
3 02/08/2021 15:13:39 -0.00, -75.19 -0.94, -70.82 497.57 80
4 02/09/2021 03:35:02 0.00, -75.17 -0.16, -76.01 95.85 80
5 02/11/2021 03:20:09 0.00, -75.16 0.46, -73.05 240.30 80
6 02/11/2021 15:41:24 -0.00, -75.19 0.64, -78.21 343.22 80
7 02/13/2021 15:29:11 0.00, -75.20 0.02, -75.25 5.98 80
8 02/15/2021 15:19:38 0.00, -75.21 -0.60, -72.29 332.25 80
9 02/16/2021 03:41:02 -0.00, -75.19 -0.49, -77.48 260.11 80
10 02/18/2021 03:26:09 -0.00, -75.21 0.14, -74.52 78.70 80
